Regional Weather Roundup
Issued by NWS Upton, NY

Current Version | Previous Version | Graphics & Text | Print | Product List | Glossary Off
Versions: 1 2 3 4 5 6 7 8 9 10 11 12 13 14 15 16 17 18 19 20 21 22 23 24 25 26 27 28 29 30 31 32 33 34 35 36 37 38 39 40 41 42 43 44 45 46 47 48 49 50

000
ASUS41 KOKX 252105
RWROKX

REGIONAL WEATHER ROUNDUP
NATIONAL WEATHER SERVICE NEW YORK NY
400 PM EST TUE NOV 25 2014

NOTE: "FAIR" INDICATES FEW OR NO CLOUDS BELOW 12,000 FEET WITH NO
SIGNIFICANT WEATHER AND/OR OBSTRUCTIONS TO VISIBILITY.

NYZ071-072-176-178-NJZ106-104-252200-
NEW YORK CITY METRO AREA


CITY           SKY/WX    TMP DP  RH WIND       PRES   REMARKS
CENTRAL PARK   CLOUDY    54  27  35 CALM      30.03R
LAGUARDIA APRT CLOUDY    54  28  36 W8        30.00R
KENNEDY INTL   CLOUDY    53  30  41 W9        30.02R
NEWARK/LIBERTY CLOUDY    53  28  38 SW12      30.01R
BRNX BOT. GARD   N/A    N/A N/A N/A SW6       30.00F
TETERBORO      CLOUDY    54  28  36 SW8       30.00R
$$

NYZ177-179-078>081-252200-
LONG ISLAND NEW YORK

CITY           SKY/WX    TMP DP  RH WIND       PRES   REMARKS
FARMINGDALE    NOT AVBL
ISLIP          CLOUDY    53  28  38 W8        29.99R
SHIRLEY        CLOUDY    53  31  42 SW5       30.01R
WESTHAMPTON    CLOUDY    53  31  42 W5        30.02R
MONTAUK POINT    N/A     54  35  48 SW7       30.00R
$$

NYZ052-065-067-252200-
HUDSON VALLEY

CITY           SKY/WX    TMP DP  RH WIND       PRES   REMARKS
WHITE PLAINS   CLOUDY    51  26  37 SW3       29.99R
NEWBURGH       MOCLDY    50  30  46 W9        29.98R
MONTGOMERY     CLOUDY    51  27  39 W8        29.97R
POUGHKEEPSIE   CLOUDY    52  27  38 SW8       29.97S
ALBANY         MOCLDY    50  25  37 W12       29.96R
$$

NJZ001-105-106-008-010-013-015-019>022-104-252200-
NEW JERSEY

CITY           SKY/WX    TMP DP  RH WIND       PRES   REMARKS
NEWARK/LIBERTY CLOUDY    53  28  38 SW12      30.01R
TETERBORO      CLOUDY    54  28  36 SW8       30.00R
CALDWELL       CLOUDY    52  27  38 W5        30.00R
MORRISTOWN     MOCLDY    52  28  40 W8        30.01R
SOMERVILLE     CLOUDY    53  27  36 W3        30.00R
SUSSEX         MOCLDY    52  27  38 SW7       29.99R
ANDOVER          N/A     51  27  39 VRB5      30.00R
TRENTON        CLOUDY    52  28  39 W7        30.02R
MILLVILLE      CLOUDY    53  31  42 NW3       30.04R
ATLANTIC CITY  CLOUDY    53  32  44 NW6       30.04R
WRIGHTSTOWN    CLOUDY    52  30  42 W6        30.01R
TOMS RIVER     CLOUDY    52  37  58 CALM      30.03R
BELMAR         CLOUDY    52  28  40 W5        30.03R
$$

PAZ047>061-062-071-252200-
EASTERN PENNSYLVANIA

CITY           SKY/WX    TMP DP  RH WIND       PRES   REMARKS
PHILADELPHIA   CLOUDY    54  29  38 W9        30.04R
ALLENTOWN      PTCLDY    52  27  38 W9        30.01R
SCRANTON       MOCLDY    50  26  39 SW12      29.99R
$$

CTZ002-004>006-009-010-012-RIZ004-006-007-MAZ004-011-015-252200-
SOUTHERN NEW ENGLAND
 IN CT

CITY           SKY/WX    TMP DP  RH WIND       PRES   REMARKS
BRADLEY INTL   CLOUDY    54  25  32 SW7       29.94R
HARTFORD       CLOUDY    53  27  36 SW15      29.96R
DANBURY        CLOUDY    50  27  40 SW6       29.99R
WTRBRY/OXFORD  CLOUDY    50  27  40 W3        29.98R
BRIDGEPORT     CLOUDY    53  35  50 SW6       29.99R
MERIDEN        CLOUDY    53  25  33 W6        29.98R
NEW HAVEN      CLOUDY    55  32  41 SW3       29.99R
CHESTER        FAIR      54  27  35 W7        29.97R
GROTON         CLOUDY    52  40  63 SW10      29.97R
WILLIMANTIC    CLOUDY    55  26  32 SW5       29.94R

 IN RI

CITY           SKY/WX    TMP DP  RH WIND       PRES   REMARKS
PROVIDENCE     CLOUDY    56  30  37 SW6       29.93S
BLOCK ISLAND   CLOUDY    54  37  54 W10       29.97R
WESTERLY       CLOUDY    53  38  56 SW8G18    29.97R

 IN MA

CITY           SKY/WX    TMP DP  RH WIND       PRES   REMARKS
BOSTON         CLOUDY    57  28  33 SW10      29.90R
WORCESTER      CLOUDY    50  26  39 SW9       29.91R
WESTFIELD      CLOUDY    53  27  36 SW9       29.94R
PROVINCETOWN   CLOUDY    55  43  62 S10       29.92S
NANTUCKET      CLOUDY    55  44  66 W12       29.95F
$$

ANZ330-335-338-340-345-350-353-355-252200-
COASTAL MARINE OBSERVATIONS


STATION/POSITION TIME  SKY/WX   TEMP    WIND        PRES    VSBY  WAVE
                                AIR SEA DIR/SP/G                  HT/PER
                 (UTC)          (F)     (DEG/KT/KT) (MB)    (MI)  (FT/S)
NY HARB ENTRANCE 2100            53 53  280/ 10/ 12 1017.3          5/10
4S FIRE IS       2100               53                N/A           5/10
20S FIRE ISLAND  2100            54 55  280/ 10/ 14 1016.4          7/10
23SW MTP         2100                                 N/A           8/10
HUDSON CANYON    2100            56 59  310/ 10/ 12 1016.7          7/10
EXECUTION ROCKS  2100            53 48  260/  8/ 10   N/A
WESTERN LI SOUND 2100            53     240/  8/ 10   N/A           1
CENTRAL LI SOUND 2000            52 50  240/ 10/ 12   N/A           2/ 4
EASTERN LI SOUND 2000            53 53  240/ 14/ 16   N/A
ROBBINS REEF     2100            53     270/ 12/ 17 1015.0
$$


>>>>>>>>>>>>>>>>>>>>>>>>>>>> KEY <<<<<<<<<<<<<<<<<<<<<<<<<<<
>                                                          <
>     SKY/WX - SKY CONDITION/PRESENT WEATHER               <
>     TMP    - TEMPERATURE IN FAHRENHEIT                   <
>     DP     - DEWPOINT IN FAHRENHEIT                      <
>     RH     - RELATIVE HUMIDITY IN PERCENT                <
>     WIND   - DIRECTION AND SPEED IN MPH                  <
>     PRES   - MEAN SEA LEVEL PRESSURE IN INCHES OF HG     <
>     WCI    - WIND CHILL INDEX                            <
>     VSB    - VISIBILITY IN MILES                         <
>     HX     - HEAT INDEX                                  <
>     TC     - TEMPERATURE IN CELSIUS                      <
>     VRB    - VARIABLE WIND DIRECTION                     <
>                                                          <
>>>>>>>>>>>>>>>>>>>>>>>>>>>> KEY <<<<<<<<<<<<<<<<<<<<<<<<<<<




USA.gov is the U.S. government's official web portal to all federal, state and local government web resources and services.